sat.trackr.live / text

‹ back to catalog

NIMIQ 2

NORAD 27632 · 2002-062A

PAYLOAD ACTIVE UNKNOWN

§ Identity

Operator
Country
CA
Launch date
2002-12-29
Launch site
TYMSC
Launch vehicle
Mass (kg)
RCS (m²)
111.29

Purposes: comms

External: N2YO · Heavens-Above · Gunter

§ Orbital elements

Epoch: 2026-09-18T23:54:38.769984Z

Period
1,436.07 min
Inclination
9.6579°
Eccentricity
0.0005775
Mean motion
1.00273398 rev/d
Perigee alt
35,761.8 km
Apogee alt
35,810.5 km
Semi-major
42,164.3 km
B*
0.0000e+0
RAAN
55.8722°
Arg perigee
116.9068°
Mean anomaly
74.5898°
Rev number
4,512

§ Raw data

NIMIQ 21 27632U 02062A   26261.99628206 -.00000071  00000+0  00000+0 0  99962 27632   9.6579  55.8722 0005775 116.9068  74.5898  1.00273398 45128

JSON: /api/v1/satellites/27632 · /tle

For live sub-satellite position, see the globe view (requires WebGL).

§ Visibility from observer

Set your observer location to see the next 7 days of passes ≥ 10°. The values pass through the URL so the page stays shareable.

No JS? Fill the form by hand. The geolocation button needs JavaScript.